COSMOS 2251 DEB, 34944

Orbit data source: Space-Track

COSMOS 2251 DEB, 34944 is space debris in LEO originally from a launch on Wed, 16 Jun 1993 UTC launched from the Plesetsk Missile And Space Complex (PKMTR). The debris from Iridium 33, an American commercial communications satellite, has been tracked extensively since its accidental collision with the defunct Russian satellite Cosmos 2251 in 2009. This event, occurring at high speed in low Earth orbit (LEO), generated thousands of pieces of space debris, significantly increasing the risk of further collisions. The Iridium 33 debris cloud has impacted space traffic management and orbital debris mitigation strategies, making it a subject of ongoing study in space situational awareness.

Loading next visibility...
Identifier
34944, 1993-036ADX
Orbit
LEO
Country
Flag of CISCIS
Related business
Manufacturer
Unknown
Mission
Spacecraft
Bus & Motor
Unknown
Mass
Unknown
Launch date (UTC)
1993-06-16 (33 years ago)
Launch vehicle
Unknown
Launch site
Plesetsk Missile And Space Complex (PKMTR)
Object type
Payload
Rocket body
Debris
Shape & HBR
Unknown shape, 0.1 m
Radar Cross Section
Small (<0.1 m²)

Expand to show TLE details & history
Last TLE update: 2 days ago

TLE from 2 days ago
0 COSMOS 2251 DEB
1 34944U 93036ADX 26207.31310860  .00001946  00000-0  81246-3 0  9998
2 34944  73.7485 184.8598 0219568 355.5735   4.3455 14.14742619672721
Epoch: 2026-07-26T07:30Z
TLE epoch observation values (Epoch: 2026-07-26T07:30:52.583Z)
Latitude
0.00001°
Longitude
128.12788°
Altitude
687.652 km
Speed
7.595 km/s
True Right ascension
12h 19m 26s
True Declination
0° 00' 00"
Sunlit
Object was in daylight at epoch
Visualization orbit readout
Latitude
Unknown
Longitude
Unknown
Altitude
Unknown
Speed
Unknown
Apparent Right ascension
Unknown
Apparent Declination
Unknown
Sunlit
N/A
Visualization observer readout
Local Sidereal Time
09:34:17
Azimuth
Unknown
Elevation
Unknown
Doppler factor
Unknown
Orbital elements
Apogee altitude
999.364 km
Perigee altitude
682.352 km
Semi-major axis
7,218.995 km
Eccentricity
0.02196
Inclination
73.7485°
RAAN
184.8598°
Arg. of periapsis
355.5735°
True anomaly
4.5415°
Mean anomaly
4.3455°
Eccentric anomaly
4.44296°
Mean motion
3.53857 °/min
Orbital period
101.74 mins
BSTAR
0.00081246
Loading maneuver chart data...
Computing Atmospheric mass density...

Documentation

Showing up to 5 results
|